iso_date,epoch_date,Year,Hour,Min,DOY,POS_DOY,Lat,Lon,BP,Ts,Ta,has_bp,has_ts,has_ta,BuoyID,Buoy_Type,Buoy_Owner,Logistics,Hemisphere
2021-09-20T16:00:02Z,1632153603,2021,16,0,263.6667,263.6667,63.839,-22.384,-999.00,28.88,-999.0,no,yes,no,300234068540430,SVPGHI,AOML,UNKNOWN,North
2021-09-20T16:59:57Z,1632157197,2021,17,0,263.7083,263.7083,63.839,-22.384,-999.00,35.94,-999.0,no,yes,no,300234068540430,SVPGHI,AOML,UNKNOWN,North
2021-09-20T18:00:00Z,1632160800,2021,18,0,263.75,263.75,63.839,-22.384,-999.00,34.19,-999.0,no,yes,no,300234068540430,SVPGHI,AOML,UNKNOWN,North
2021-09-20T19:00:02Z,1632164403,2021,19,0,263.7917,263.7917,63.839,-22.384,-999.00,35.94,-999.0,no,yes,no,300234068540430,SVPGHI,AOML,UNKNOWN,North
2021-09-20T19:59:57Z,1632167997,2021,20,0,263.8333,263.8333,63.84,-22.381,-999.00,28.37,-999.0,no,yes,no,300234068540430,SVPGHI,AOML,UNKNOWN,North
2021-09-20T21:00:00Z,1632171600,2021,21,0,263.875,263.875,63.839,-22.383,-999.00,21.86,-999.0,no,yes,no,300234068540430,SVPGHI,AOML,UNKNOWN,North
2021-09-20T22:00:02Z,1632175203,2021,22,0,263.9167,263.9167,63.84,-22.384,-999.00,12.39,-999.0,no,yes,no,300234068540430,SVPGHI,AOML,UNKNOWN,North
2021-09-20T22:59:57Z,1632178797,2021,23,0,263.9583,263.9583,63.839,-22.384,-999.00,17.91,-999.0,no,yes,no,300234068540430,SVPGHI,AOML,UNKNOWN,North
2021-09-21T00:00:00Z,1632182400,2021,0,0,264.0,264.0,63.839,-22.385,-999.00,24.64,-999.0,no,yes,no,300234068540430,SVPGHI,AOML,UNKNOWN,North
2021-09-21T01:00:02Z,1632186003,2021,1,0,264.0417,264.0417,63.839,-22.384,-999.00,21.01,-999.0,no,yes,no,300234068540430,SVPGHI,AOML,UNKNOWN,North
2021-09-21T01:59:57Z,1632189597,2021,2,0,264.0833,264.0833,63.839,-22.384,-999.00,19.56,-999.0,no,yes,no,300234068540430,SVPGHI,AOML,UNKNOWN,North
2021-09-21T03:00:00Z,1632193200,2021,3,0,264.125,264.125,63.839,-22.384,-999.00,15.23,-999.0,no,yes,no,300234068540430,SVPGHI,AOML,UNKNOWN,North
2021-09-21T04:00:02Z,1632196803,2021,4,0,264.1667,264.1667,63.839,-22.384,-999.00,12.53,-999.0,no,yes,no,300234068540430,SVPGHI,AOML,UNKNOWN,North
2021-09-21T04:59:57Z,1632200397,2021,5,0,264.2083,264.2083,63.839,-22.384,-999.00,26.93,-999.0,no,yes,no,300234068540430,SVPGHI,AOML,UNKNOWN,North
2021-09-21T06:00:00Z,1632204000,2021,6,0,264.25,264.25,63.838,-22.384,-999.00,29.7,-999.0,no,yes,no,300234068540430,SVPGHI,AOML,UNKNOWN,North
2021-09-21T07:00:02Z,1632207603,2021,7,0,264.2917,264.2917,63.839,-22.384,-999.00,34.81,-999.0,no,yes,no,300234068540430,SVPGHI,AOML,UNKNOWN,North
2021-09-21T07:59:57Z,1632211197,2021,8,0,264.3333,264.3333,63.839,-22.383,-999.00,0.11,-999.0,no,yes,no,300234068540430,SVPGHI,AOML,UNKNOWN,North
2021-09-21T09:00:00Z,1632214800,2021,9,0,264.375,264.375,63.839,-22.385,-999.00,1.21,-999.0,no,yes,no,300234068540430,SVPGHI,AOML,UNKNOWN,North
2021-09-21T10:00:02Z,1632218403,2021,10,0,264.4167,264.4167,63.839,-22.384,-999.00,-1.18,-999.0,no,yes,no,300234068540430,SVPGHI,AOML,UNKNOWN,North
2021-09-21T10:59:57Z,1632221997,2021,11,0,264.4583,264.4583,63.839,-22.384,-999.00,-2.76,-999.0,no,yes,no,300234068540430,SVPGHI,AOML,UNKNOWN,North
2021-09-21T12:00:00Z,1632225600,2021,12,0,264.5,264.5,63.839,-22.384,-999.00,-2.34,-999.0,no,yes,no,300234068540430,SVPGHI,AOML,UNKNOWN,North
2021-09-21T13:00:02Z,1632229203,2021,13,0,264.5417,264.5417,63.839,-22.384,-999.00,-5.0,-999.0,no,yes,no,300234068540430,SVPGHI,AOML,UNKNOWN,North
2021-09-21T13:59:57Z,1632232797,2021,14,0,264.5833,264.5833,63.838,-22.384,-999.00,-5.0,-999.0,no,yes,no,300234068540430,SVPGHI,AOML,UNKNOWN,North
2021-09-21T15:00:00Z,1632236400,2021,15,0,264.625,264.625,63.839,-22.384,-999.00,-5.0,-999.0,no,yes,no,300234068540430,SVPGHI,AOML,UNKNOWN,North
2021-09-21T16:00:02Z,1632240003,2021,16,0,264.6667,264.6667,63.839,-22.382,-999.00,29.3,-999.0,no,yes,no,300234068540430,SVPGHI,AOML,UNKNOWN,North
2021-09-21T17:00:57Z,1632243658,2021,17,1,264.709,264.709,63.839,-22.384,-999.00,35.94,-999.0,no,yes,no,300234068540430,SVPGHI,AOML,UNKNOWN,North
2021-09-21T18:00:00Z,1632247200,2021,18,0,264.75,264.75,63.839,-22.385,-999.00,17.13,-999.0,no,yes,no,300234068540430,SVPGHI,AOML,UNKNOWN,North
2021-09-21T19:00:02Z,1632250803,2021,19,0,264.7917,264.7917,63.839,-22.385,-999.00,19.27,-999.0,no,yes,no,300234068540430,SVPGHI,AOML,UNKNOWN,North
2021-09-21T19:59:57Z,1632254397,2021,20,0,264.8333,264.8333,63.839,-22.385,-999.00,19.55,-999.0,no,yes,no,300234068540430,SVPGHI,AOML,UNKNOWN,North
2021-09-21T21:00:00Z,1632258000,2021,21,0,264.875,264.875,63.839,-22.385,-999.00,18.85,-999.0,no,yes,no,300234068540430,SVPGHI,AOML,UNKNOWN,North
2021-09-21T22:00:02Z,1632261603,2021,22,0,264.9167,264.9167,63.839,-22.385,-999.00,19.23,-999.0,no,yes,no,300234068540430,SVPGHI,AOML,UNKNOWN,North
2021-09-21T22:59:57Z,1632265197,2021,23,0,264.9583,264.9583,63.839,-22.385,-999.00,8.8,-999.0,no,yes,no,300234068540430,SVPGHI,AOML,UNKNOWN,North
2021-09-22T00:00:00Z,1632268800,2021,0,0,265.0,265.0,63.842,-22.384,-999.00,9.07,-999.0,no,yes,no,300234068540430,SVPGHI,AOML,UNKNOWN,North
2021-09-22T01:00:02Z,1632272403,2021,1,0,265.0417,265.0417,63.839,-22.385,-999.00,10.55,-999.0,no,yes,no,300234068540430,SVPGHI,AOML,UNKNOWN,North
2021-09-22T01:59:57Z,1632275997,2021,2,0,265.0833,265.0833,63.839,-22.385,-999.00,10.28,-999.0,no,yes,no,300234068540430,SVPGHI,AOML,UNKNOWN,North
2021-09-22T03:00:00Z,1632279600,2021,3,0,265.125,265.125,63.839,-22.385,-999.00,9.05,-999.0,no,yes,no,300234068540430,SVPGHI,AOML,UNKNOWN,North
2021-09-22T04:00:02Z,1632283203,2021,4,0,265.1667,265.1667,63.839,-22.385,-999.00,9.49,-999.0,no,yes,no,300234068540430,SVPGHI,AOML,UNKNOWN,North
2021-09-22T04:59:57Z,1632286797,2021,5,0,265.2083,265.2083,63.839,-22.386,-999.00,14.33,-999.0,no,yes,no,300234068540430,SVPGHI,AOML,UNKNOWN,North
2021-09-22T06:00:00Z,1632290400,2021,6,0,265.25,265.25,63.839,-22.384,-999.00,22.6,-999.0,no,yes,no,300234068540430,SVPGHI,AOML,UNKNOWN,North
2021-09-22T07:00:02Z,1632294003,2021,7,0,265.2917,265.2917,63.839,-22.384,-999.00,9.89,-999.0,no,yes,no,300234068540430,SVPGHI,AOML,UNKNOWN,North
2021-09-22T07:59:57Z,1632297597,2021,8,0,265.3333,265.3333,63.839,-22.385,-999.00,11.19,-999.0,no,yes,no,300234068540430,SVPGHI,AOML,UNKNOWN,North
2021-09-22T09:00:00Z,1632301200,2021,9,0,265.375,265.375,63.839,-22.385,-999.00,12.29,-999.0,no,yes,no,300234068540430,SVPGHI,AOML,UNKNOWN,North
2021-09-22T10:59:57Z,1632308397,2021,11,0,265.4583,265.4583,63.839,-22.385,-999.00,12.9,-999.0,no,yes,no,300234068540430,SVPGHI,AOML,UNKNOWN,North
2021-09-22T12:00:00Z,1632312000,2021,12,0,265.5,265.5,63.839,-22.385,-999.00,12.4,-999.0,no,yes,no,300234068540430,SVPGHI,AOML,UNKNOWN,North
2021-09-22T13:00:02Z,1632315603,2021,13,0,265.5417,265.5417,63.839,-22.385,-999.00,12.09,-999.0,no,yes,no,300234068540430,SVPGHI,AOML,UNKNOWN,North
2021-09-22T13:59:57Z,1632319197,2021,14,0,265.5833,265.5833,63.839,-22.385,-999.00,-5.0,-999.0,no,yes,no,300234068540430,SVPGHI,AOML,UNKNOWN,North
2021-09-22T15:00:00Z,1632322800,2021,15,0,265.625,265.625,63.839,-22.385,-999.00,-5.0,-999.0,no,yes,no,300234068540430,SVPGHI,AOML,UNKNOWN,North
2021-09-22T16:00:02Z,1632326403,2021,16,0,265.6667,265.6667,63.839,-22.384,-999.00,-5.0,-999.0,no,yes,no,300234068540430,SVPGHI,AOML,UNKNOWN,North
2021-09-22T16:59:57Z,1632329997,2021,17,0,265.7083,265.7083,63.839,-22.385,-999.00,-5.0,-999.0,no,yes,no,300234068540430,SVPGHI,AOML,UNKNOWN,North
2021-09-22T18:00:00Z,1632333600,2021,18,0,265.75,265.75,63.839,-22.385,-999.00,-5.0,-999.0,no,yes,no,300234068540430,SVPGHI,AOML,UNKNOWN,North
2021-09-22T19:00:02Z,1632337203,2021,19,0,265.7917,265.7917,63.839,-22.385,-999.00,-5.0,-999.0,no,yes,no,300234068540430,SVPGHI,AOML,UNKNOWN,North
2021-09-22T19:59:57Z,1632340797,2021,20,0,265.8333,265.8333,63.839,-22.385,-999.00,-5.0,-999.0,no,yes,no,300234068540430,SVPGHI,AOML,UNKNOWN,North
2021-09-22T21:00:00Z,1632344400,2021,21,0,265.875,265.875,63.839,-22.385,-999.00,-5.0,-999.0,no,yes,no,300234068540430,SVPGHI,AOML,UNKNOWN,North
2021-09-22T22:00:02Z,1632348003,2021,22,0,265.9167,265.9167,63.839,-22.385,-999.00,-5.0,-999.0,no,yes,no,300234068540430,SVPGHI,AOML,UNKNOWN,North
2021-09-22T22:59:57Z,1632351597,2021,23,0,265.9583,265.9583,63.839,-22.385,-999.00,-5.0,-999.0,no,yes,no,300234068540430,SVPGHI,AOML,UNKNOWN,North
2021-09-23T00:00:00Z,1632355200,2021,0,0,266.0,266.0,63.839,-22.385,-999.00,-5.0,-999.0,no,yes,no,300234068540430,SVPGHI,AOML,UNKNOWN,North
2021-09-23T01:00:02Z,1632358803,2021,1,0,266.0417,266.0417,63.839,-22.385,-999.00,-5.0,-999.0,no,yes,no,300234068540430,SVPGHI,AOML,UNKNOWN,North
2021-09-23T01:59:57Z,1632362397,2021,2,0,266.0833,266.0833,63.839,-22.385,-999.00,-5.0,-999.0,no,yes,no,300234068540430,SVPGHI,AOML,UNKNOWN,North
2021-09-23T03:00:00Z,1632366000,2021,3,0,266.125,266.125,63.839,-22.384,-999.00,-5.0,-999.0,no,yes,no,300234068540430,SVPGHI,AOML,UNKNOWN,North
2021-09-23T04:00:02Z,1632369603,2021,4,0,266.1667,266.1667,63.838,-22.383,-999.00,0.2,-999.0,no,yes,no,300234068540430,SVPGHI,AOML,UNKNOWN,North
2021-09-23T04:59:57Z,1632373197,2021,5,0,266.2083,266.2083,63.839,-22.383,-999.00,-5.0,-999.0,no,yes,no,300234068540430,SVPGHI,AOML,UNKNOWN,North
2021-09-23T06:00:00Z,1632376800,2021,6,0,266.25,266.25,63.839,-22.385,-999.00,-5.0,-999.0,no,yes,no,300234068540430,SVPGHI,AOML,UNKNOWN,North
2021-09-23T07:00:02Z,1632380403,2021,7,0,266.2917,266.2917,63.839,-22.385,-999.00,-5.0,-999.0,no,yes,no,300234068540430,SVPGHI,AOML,UNKNOWN,North
2021-09-23T07:59:57Z,1632383997,2021,8,0,266.3333,266.3333,63.839,-22.385,-999.00,-5.0,-999.0,no,yes,no,300234068540430,SVPGHI,AOML,UNKNOWN,North
2021-09-23T09:00:00Z,1632387600,2021,9,0,266.375,266.375,63.839,-22.385,-999.00,-5.0,-999.0,no,yes,no,300234068540430,SVPGHI,AOML,UNKNOWN,North
2021-09-23T10:00:02Z,1632391203,2021,10,0,266.4167,266.4167,63.839,-22.385,-999.00,-5.0,-999.0,no,yes,no,300234068540430,SVPGHI,AOML,UNKNOWN,North
2021-09-23T12:00:00Z,1632398400,2021,12,0,266.5,266.5,63.839,-22.385,-999.00,-5.0,-999.0,no,yes,no,300234068540430,SVPGHI,AOML,UNKNOWN,North
2021-09-23T13:00:02Z,1632402003,2021,13,0,266.5417,266.5417,63.839,-22.385,-999.00,-5.0,-999.0,no,yes,no,300234068540430,SVPGHI,AOML,UNKNOWN,North
2021-09-23T13:59:57Z,1632405597,2021,14,0,266.5833,266.5833,63.839,-22.385,-999.00,-5.0,-999.0,no,yes,no,300234068540430,SVPGHI,AOML,UNKNOWN,North
2021-09-23T15:00:00Z,1632409200,2021,15,0,266.625,266.625,63.84,-22.384,-999.00,-5.0,-999.0,no,yes,no,300234068540430,SVPGHI,AOML,UNKNOWN,North
2021-09-23T16:00:02Z,1632412803,2021,16,0,266.6667,266.6667,63.839,-22.385,-999.00,-5.0,-999.0,no,yes,no,300234068540430,SVPGHI,AOML,UNKNOWN,North
2021-09-23T16:59:57Z,1632416397,2021,17,0,266.7083,266.7083,63.839,-22.385,-999.00,-5.0,-999.0,no,yes,no,300234068540430,SVPGHI,AOML,UNKNOWN,North
2021-09-23T18:00:00Z,1632420000,2021,18,0,266.75,266.75,63.839,-22.385,-999.00,-5.0,-999.0,no,yes,no,300234068540430,SVPGHI,AOML,UNKNOWN,North
2021-09-23T19:00:02Z,1632423603,2021,19,0,266.7917,266.7917,63.839,-22.385,-999.00,-5.0,-999.0,no,yes,no,300234068540430,SVPGHI,AOML,UNKNOWN,North
2021-09-23T19:59:57Z,1632427197,2021,20,0,266.8333,266.8333,63.839,-22.385,-999.00,-5.0,-999.0,no,yes,no,300234068540430,SVPGHI,AOML,UNKNOWN,North
2021-09-23T21:00:00Z,1632430800,2021,21,0,266.875,266.875,63.837,-22.385,-999.00,-5.0,-999.0,no,yes,no,300234068540430,SVPGHI,AOML,UNKNOWN,North
2021-09-23T22:00:02Z,1632434403,2021,22,0,266.9167,266.9167,63.839,-22.385,-999.00,-5.0,-999.0,no,yes,no,300234068540430,SVPGHI,AOML,UNKNOWN,North
2021-09-23T22:59:57Z,1632437997,2021,23,0,266.9583,266.9583,63.839,-22.385,-999.00,-5.0,-999.0,no,yes,no,300234068540430,SVPGHI,AOML,UNKNOWN,North
2021-09-24T00:00:00Z,1632441600,2021,0,0,267.0,267.0,63.839,-22.385,-999.00,-5.0,-999.0,no,yes,no,300234068540430,SVPGHI,AOML,UNKNOWN,North
2021-09-24T01:00:02Z,1632445203,2021,1,0,267.0417,267.0417,63.839,-22.385,-999.00,-5.0,-999.0,no,yes,no,300234068540430,SVPGHI,AOML,UNKNOWN,North
2021-09-24T01:59:57Z,1632448797,2021,2,0,267.0833,267.0833,63.839,-22.384,-999.00,-5.0,-999.0,no,yes,no,300234068540430,SVPGHI,AOML,UNKNOWN,North
2021-09-24T03:00:00Z,1632452400,2021,3,0,267.125,267.125,63.838,-22.383,-999.00,-5.0,-999.0,no,yes,no,300234068540430,SVPGHI,AOML,UNKNOWN,North
2021-09-24T04:00:02Z,1632456003,2021,4,0,267.1667,267.1667,63.839,-22.385,-999.00,-5.0,-999.0,no,yes,no,300234068540430,SVPGHI,AOML,UNKNOWN,North
2021-09-24T04:59:57Z,1632459597,2021,5,0,267.2083,267.2083,63.839,-22.385,-999.00,-5.0,-999.0,no,yes,no,300234068540430,SVPGHI,AOML,UNKNOWN,North
2021-09-24T06:00:00Z,1632463200,2021,6,0,267.25,267.25,63.839,-22.385,-999.00,-5.0,-999.0,no,yes,no,300234068540430,SVPGHI,AOML,UNKNOWN,North
2021-09-24T07:00:02Z,1632466803,2021,7,0,267.2917,267.2917,63.839,-22.385,-999.00,-5.0,-999.0,no,yes,no,300234068540430,SVPGHI,AOML,UNKNOWN,North
2021-09-24T07:59:57Z,1632470397,2021,8,0,267.3333,267.3333,63.838,-22.381,-999.00,-5.0,-999.0,no,yes,no,300234068540430,SVPGHI,AOML,UNKNOWN,North
2021-09-24T09:00:00Z,1632474000,2021,9,0,267.375,267.375,63.839,-22.385,-999.00,-5.0,-999.0,no,yes,no,300234068540430,SVPGHI,AOML,UNKNOWN,North
2021-09-24T10:00:02Z,1632477603,2021,10,0,267.4167,267.4167,63.839,-22.385,-999.00,-5.0,-999.0,no,yes,no,300234068540430,SVPGHI,AOML,UNKNOWN,North
2021-09-24T10:59:57Z,1632481197,2021,11,0,267.4583,267.4583,63.839,-22.385,-999.00,-5.0,-999.0,no,yes,no,300234068540430,SVPGHI,AOML,UNKNOWN,North
2021-09-24T12:00:00Z,1632484800,2021,12,0,267.5,267.5,63.839,-22.385,-999.00,-5.0,-999.0,no,yes,no,300234068540430,SVPGHI,AOML,UNKNOWN,North
2021-09-24T13:00:02Z,1632488403,2021,13,0,267.5417,267.5417,63.839,-22.385,-999.00,-5.0,-999.0,no,yes,no,300234068540430,SVPGHI,AOML,UNKNOWN,North
2021-09-24T13:59:57Z,1632491997,2021,14,0,267.5833,267.5833,63.839,-22.385,-999.00,-5.0,-999.0,no,yes,no,300234068540430,SVPGHI,AOML,UNKNOWN,North
2021-09-24T15:00:00Z,1632495600,2021,15,0,267.625,267.625,63.839,-22.385,-999.00,-5.0,-999.0,no,yes,no,300234068540430,SVPGHI,AOML,UNKNOWN,North
2021-09-24T16:00:02Z,1632499203,2021,16,0,267.6667,267.6667,63.84,-22.385,-999.00,-5.0,-999.0,no,yes,no,300234068540430,SVPGHI,AOML,UNKNOWN,North
2021-09-24T16:59:57Z,1632502797,2021,17,0,267.7083,267.7083,63.839,-22.385,-999.00,-5.0,-999.0,no,yes,no,300234068540430,SVPGHI,AOML,UNKNOWN,North
2021-09-24T18:00:00Z,1632506400,2021,18,0,267.75,267.75,63.839,-22.385,-999.00,-5.0,-999.0,no,yes,no,300234068540430,SVPGHI,AOML,UNKNOWN,North
2021-09-24T19:00:02Z,1632510003,2021,19,0,267.7917,267.7917,63.839,-22.385,-999.00,-5.0,-999.0,no,yes,no,300234068540430,SVPGHI,AOML,UNKNOWN,North
2021-09-24T19:59:57Z,1632513597,2021,20,0,267.8333,267.8333,63.839,-22.385,-999.00,-5.0,-999.0,no,yes,no,300234068540430,SVPGHI,AOML,UNKNOWN,North
2021-09-24T21:00:00Z,1632517200,2021,21,0,267.875,267.875,63.839,-22.385,-999.00,-5.0,-999.0,no,yes,no,300234068540430,SVPGHI,AOML,UNKNOWN,North
2021-09-24T22:00:02Z,1632520803,2021,22,0,267.9167,267.9167,63.839,-22.385,-999.00,-5.0,-999.0,no,yes,no,300234068540430,SVPGHI,AOML,UNKNOWN,North
2021-09-24T22:59:57Z,1632524397,2021,23,0,267.9583,267.9583,63.839,-22.385,-999.00,-5.0,-999.0,no,yes,no,300234068540430,SVPGHI,AOML,UNKNOWN,North
2021-09-25T00:00:00Z,1632528000,2021,0,0,268.0,268.0,63.839,-22.385,-999.00,-5.0,-999.0,no,yes,no,300234068540430,SVPGHI,AOML,UNKNOWN,North
2021-09-25T01:00:02Z,1632531603,2021,1,0,268.0417,268.0417,63.839,-22.385,-999.00,-5.0,-999.0,no,yes,no,300234068540430,SVPGHI,AOML,UNKNOWN,North
2021-09-25T01:59:57Z,1632535197,2021,2,0,268.0833,268.0833,63.839,-22.385,-999.00,-5.0,-999.0,no,yes,no,300234068540430,SVPGHI,AOML,UNKNOWN,North
2021-09-25T03:00:00Z,1632538800,2021,3,0,268.125,268.125,63.839,-22.385,-999.00,-5.0,-999.0,no,yes,no,300234068540430,SVPGHI,AOML,UNKNOWN,North
2021-09-25T04:00:02Z,1632542403,2021,4,0,268.1667,268.1667,63.839,-22.385,-999.00,-5.0,-999.0,no,yes,no,300234068540430,SVPGHI,AOML,UNKNOWN,North
2021-09-25T04:59:57Z,1632545997,2021,5,0,268.2083,268.2083,63.839,-22.385,-999.00,-5.0,-999.0,no,yes,no,300234068540430,SVPGHI,AOML,UNKNOWN,North
2021-09-25T07:00:02Z,1632553203,2021,7,0,268.2917,268.2917,63.839,-22.385,-999.00,-5.0,-999.0,no,yes,no,300234068540430,SVPGHI,AOML,UNKNOWN,North
2021-09-25T07:59:57Z,1632556797,2021,8,0,268.3333,268.3333,63.838,-22.384,-999.00,-5.0,-999.0,no,yes,no,300234068540430,SVPGHI,AOML,UNKNOWN,North
2021-09-25T09:00:00Z,1632560400,2021,9,0,268.375,268.375,63.839,-22.385,-999.00,-5.0,-999.0,no,yes,no,300234068540430,SVPGHI,AOML,UNKNOWN,North
2021-09-25T10:00:02Z,1632564003,2021,10,0,268.4167,268.4167,63.839,-22.385,-999.00,-5.0,-999.0,no,yes,no,300234068540430,SVPGHI,AOML,UNKNOWN,North
2021-09-25T10:59:57Z,1632567597,2021,11,0,268.4583,268.4583,63.839,-22.385,-999.00,-5.0,-999.0,no,yes,no,300234068540430,SVPGHI,AOML,UNKNOWN,North
2021-09-25T12:00:00Z,1632571200,2021,12,0,268.5,268.5,63.839,-22.385,-999.00,-5.0,-999.0,no,yes,no,300234068540430,SVPGHI,AOML,UNKNOWN,North
2021-09-25T13:00:02Z,1632574803,2021,13,0,268.5417,268.5417,63.839,-22.385,-999.00,-5.0,-999.0,no,yes,no,300234068540430,SVPGHI,AOML,UNKNOWN,North
2021-09-25T13:59:57Z,1632578397,2021,14,0,268.5833,268.5833,63.838,-22.385,-999.00,-5.0,-999.0,no,yes,no,300234068540430,SVPGHI,AOML,UNKNOWN,North
2021-09-25T15:00:00Z,1632582000,2021,15,0,268.625,268.625,63.839,-22.385,-999.00,-5.0,-999.0,no,yes,no,300234068540430,SVPGHI,AOML,UNKNOWN,North
2021-09-25T16:00:02Z,1632585603,2021,16,0,268.6667,268.6667,63.839,-22.385,-999.00,-5.0,-999.0,no,yes,no,300234068540430,SVPGHI,AOML,UNKNOWN,North
2021-09-25T16:59:57Z,1632589197,2021,17,0,268.7083,268.7083,63.839,-22.385,-999.00,-5.0,-999.0,no,yes,no,300234068540430,SVPGHI,AOML,UNKNOWN,North
2021-09-25T18:00:00Z,1632592800,2021,18,0,268.75,268.75,63.839,-22.382,-999.00,-5.0,-999.0,no,yes,no,300234068540430,SVPGHI,AOML,UNKNOWN,North
2021-09-25T19:00:02Z,1632596403,2021,19,0,268.7917,268.7917,63.839,-22.385,-999.00,-5.0,-999.0,no,yes,no,300234068540430,SVPGHI,AOML,UNKNOWN,North
2021-09-25T19:59:57Z,1632599997,2021,20,0,268.8333,268.8333,63.839,-22.385,-999.00,-5.0,-999.0,no,yes,no,300234068540430,SVPGHI,AOML,UNKNOWN,North
2021-09-25T21:00:00Z,1632603600,2021,21,0,268.875,268.875,63.839,-22.385,-999.00,-5.0,-999.0,no,yes,no,300234068540430,SVPGHI,AOML,UNKNOWN,North
2021-09-25T22:00:02Z,1632607203,2021,22,0,268.9167,268.9167,63.84,-22.381,-999.00,-5.0,-999.0,no,yes,no,300234068540430,SVPGHI,AOML,UNKNOWN,North
2021-09-25T22:59:57Z,1632610797,2021,23,0,268.9583,268.9583,63.839,-22.385,-999.00,-5.0,-999.0,no,yes,no,300234068540430,SVPGHI,AOML,UNKNOWN,North
2021-09-26T00:00:00Z,1632614400,2021,0,0,269.0,269.0,63.839,-22.385,-999.00,-5.0,-999.0,no,yes,no,300234068540430,SVPGHI,AOML,UNKNOWN,North
2021-09-26T01:59:57Z,1632621597,2021,2,0,269.0833,269.0833,63.839,-22.385,-999.00,-5.0,-999.0,no,yes,no,300234068540430,SVPGHI,AOML,UNKNOWN,North
2021-09-26T03:00:00Z,1632625200,2021,3,0,269.125,269.125,63.839,-22.385,-999.00,-5.0,-999.0,no,yes,no,300234068540430,SVPGHI,AOML,UNKNOWN,North
2021-09-26T04:00:02Z,1632628803,2021,4,0,269.1667,269.1667,63.839,-22.385,-999.00,-5.0,-999.0,no,yes,no,300234068540430,SVPGHI,AOML,UNKNOWN,North
2021-09-26T04:59:57Z,1632632397,2021,5,0,269.2083,269.2083,63.839,-22.384,-999.00,-5.0,-999.0,no,yes,no,300234068540430,SVPGHI,AOML,UNKNOWN,North
2021-09-26T06:00:00Z,1632636000,2021,6,0,269.25,269.25,63.84,-22.384,-999.00,-5.0,-999.0,no,yes,no,300234068540430,SVPGHI,AOML,UNKNOWN,North
2021-09-26T07:00:02Z,1632639603,2021,7,0,269.2917,269.2917,63.839,-22.385,-999.00,-5.0,-999.0,no,yes,no,300234068540430,SVPGHI,AOML,UNKNOWN,North
2021-09-26T07:59:57Z,1632643197,2021,8,0,269.3333,269.3333,63.839,-22.385,-999.00,-5.0,-999.0,no,yes,no,300234068540430,SVPGHI,AOML,UNKNOWN,North
2021-09-26T09:00:00Z,1632646800,2021,9,0,269.375,269.375,63.84,-22.385,-999.00,-5.0,-999.0,no,yes,no,300234068540430,SVPGHI,AOML,UNKNOWN,North
2021-09-26T10:00:02Z,1632650403,2021,10,0,269.4167,269.4167,63.839,-22.385,-999.00,-5.0,-999.0,no,yes,no,300234068540430,SVPGHI,AOML,UNKNOWN,North
2021-09-26T10:59:57Z,1632653997,2021,11,0,269.4583,269.4583,63.839,-22.385,-999.00,-5.0,-999.0,no,yes,no,300234068540430,SVPGHI,AOML,UNKNOWN,North
2021-09-26T12:00:00Z,1632657600,2021,12,0,269.5,269.5,63.839,-22.385,-999.00,-5.0,-999.0,no,yes,no,300234068540430,SVPGHI,AOML,UNKNOWN,North
2021-09-26T13:00:02Z,1632661203,2021,13,0,269.5417,269.5417,63.839,-22.385,-999.00,-5.0,-999.0,no,yes,no,300234068540430,SVPGHI,AOML,UNKNOWN,North
2021-09-26T13:59:57Z,1632664797,2021,14,0,269.5833,269.5833,63.839,-22.385,-999.00,-5.0,-999.0,no,yes,no,300234068540430,SVPGHI,AOML,UNKNOWN,North
2021-09-26T15:00:00Z,1632668400,2021,15,0,269.625,269.625,63.839,-22.384,-999.00,-5.0,-999.0,no,yes,no,300234068540430,SVPGHI,AOML,UNKNOWN,North
2021-09-26T16:00:02Z,1632672003,2021,16,0,269.6667,269.6667,63.839,-22.385,-999.00,-5.0,-999.0,no,yes,no,300234068540430,SVPGHI,AOML,UNKNOWN,North
2021-09-26T16:59:57Z,1632675597,2021,17,0,269.7083,269.7083,63.839,-22.385,-999.00,-5.0,-999.0,no,yes,no,300234068540430,SVPGHI,AOML,UNKNOWN,North
2021-09-26T18:00:00Z,1632679200,2021,18,0,269.75,269.75,63.839,-22.385,-999.00,-5.0,-999.0,no,yes,no,300234068540430,SVPGHI,AOML,UNKNOWN,North
2021-09-26T19:00:02Z,1632682803,2021,19,0,269.7917,269.7917,63.839,-22.385,-999.00,-5.0,-999.0,no,yes,no,300234068540430,SVPGHI,AOML,UNKNOWN,North
2021-09-26T19:59:57Z,1632686397,2021,20,0,269.8333,269.8333,63.839,-22.385,-999.00,-5.0,-999.0,no,yes,no,300234068540430,SVPGHI,AOML,UNKNOWN,North
2021-09-26T21:00:00Z,1632690000,2021,21,0,269.875,269.875,63.839,-22.385,-999.00,-5.0,-999.0,no,yes,no,300234068540430,SVPGHI,AOML,UNKNOWN,North
2021-09-26T22:00:02Z,1632693603,2021,22,0,269.9167,269.9167,63.84,-22.382,-999.00,-5.0,-999.0,no,yes,no,300234068540430,SVPGHI,AOML,UNKNOWN,North
2021-09-26T22:59:57Z,1632697197,2021,23,0,269.9583,269.9583,63.839,-22.385,-999.00,-5.0,-999.0,no,yes,no,300234068540430,SVPGHI,AOML,UNKNOWN,North
2021-09-27T00:00:00Z,1632700800,2021,0,0,270.0,270.0,63.839,-22.385,-999.00,-5.0,-999.0,no,yes,no,300234068540430,SVPGHI,AOML,UNKNOWN,North
2021-09-27T01:00:02Z,1632704403,2021,1,0,270.0417,270.0417,63.839,-22.385,-999.00,-5.0,-999.0,no,yes,no,300234068540430,SVPGHI,AOML,UNKNOWN,North
2021-09-27T01:59:57Z,1632707997,2021,2,0,270.0833,270.0833,63.84,-22.384,-999.00,-5.0,-999.0,no,yes,no,300234068540430,SVPGHI,AOML,UNKNOWN,North
2021-09-27T03:00:00Z,1632711600,2021,3,0,270.125,270.125,63.839,-22.385,-999.00,-5.0,-999.0,no,yes,no,300234068540430,SVPGHI,AOML,UNKNOWN,North
2021-09-27T04:00:02Z,1632715203,2021,4,0,270.1667,270.1667,63.839,-22.384,-999.00,-5.0,-999.0,no,yes,no,300234068540430,SVPGHI,AOML,UNKNOWN,North
2021-09-27T04:59:57Z,1632718797,2021,5,0,270.2083,270.2083,63.839,-22.385,-999.00,-5.0,-999.0,no,yes,no,300234068540430,SVPGHI,AOML,UNKNOWN,North
2021-09-27T06:00:00Z,1632722400,2021,6,0,270.25,270.25,63.839,-22.385,-999.00,-5.0,-999.0,no,yes,no,300234068540430,SVPGHI,AOML,UNKNOWN,North
2021-09-27T07:00:02Z,1632726003,2021,7,0,270.2917,270.2917,63.839,-22.385,-999.00,-5.0,-999.0,no,yes,no,300234068540430,SVPGHI,AOML,UNKNOWN,North
2021-09-27T07:59:57Z,1632729597,2021,8,0,270.3333,270.3333,63.838,-22.385,-999.00,-5.0,-999.0,no,yes,no,300234068540430,SVPGHI,AOML,UNKNOWN,North
2021-09-27T09:00:00Z,1632733200,2021,9,0,270.375,270.375,63.84,-22.384,-999.00,-5.0,-999.0,no,yes,no,300234068540430,SVPGHI,AOML,UNKNOWN,North
2021-09-27T10:00:02Z,1632736803,2021,10,0,270.4167,270.4167,63.839,-22.385,-999.00,-5.0,-999.0,no,yes,no,300234068540430,SVPGHI,AOML,UNKNOWN,North
2021-09-27T12:00:00Z,1632744000,2021,12,0,270.5,270.5,63.839,-22.385,-999.00,-5.0,-999.0,no,yes,no,300234068540430,SVPGHI,AOML,UNKNOWN,North
2021-09-27T13:00:02Z,1632747603,2021,13,0,270.5417,270.5417,63.839,-22.385,-999.00,-5.0,-999.0,no,yes,no,300234068540430,SVPGHI,AOML,UNKNOWN,North
2021-09-27T13:59:57Z,1632751197,2021,14,0,270.5833,270.5833,63.84,-22.384,-999.00,-5.0,-999.0,no,yes,no,300234068540430,SVPGHI,AOML,UNKNOWN,North
2021-09-27T15:00:00Z,1632754800,2021,15,0,270.625,270.625,63.839,-22.385,-999.00,-5.0,-999.0,no,yes,no,300234068540430,SVPGHI,AOML,UNKNOWN,North
2021-09-27T16:00:02Z,1632758403,2021,16,0,270.6667,270.6667,63.839,-22.385,-999.00,-5.0,-999.0,no,yes,no,300234068540430,SVPGHI,AOML,UNKNOWN,North